Погода в Калапане

Филиппины     13°24′19″N   121°10′33″E
темп.,
°C
ветер,
м/с
пор.,
м/с
влажн.,
%
обл.,
%
осадки,
мм/ч
давл.,
гПа
погр.,
м
17 мая, вт
вт1723:00+28сз3377100 2.0 1010218
02:00+28сз3376100 2.9 1009296
05:00+28ссв1173100 0.8 1009385
08:00+28юв3476100 0.8 1010626
11:00+28вюв5678100 0.0 1010561
14:00+29юв777567 0.8 1008625
17:00+29юв5678100 5.9 1008431
20:00+29юв5676100 9.3 1010563
18 мая, ср
ср1823:00+28юв3478100 6.6 1011241
02:00+28ссз1276100 12.4 1009209
05:00+28с347767 3.3 1010368
08:00+28всв3478100 8.3 1012357
11:00+27вюв5582100 1.3 1012396
14:00+28вюв3476100 1.5 1010428
17:00+27з1180100 2.4 101083
20:00+25сз4390100 11.6 1013268
19 мая, чт
чт1923:00+26с1185100 1.3 1013264
02:00+26вюв2285100 1.5 1011338
05:00+27вюв4582100 0.6 1011630
08:00+27вюв458193 0.7 1013644
11:00+27вюв448198 0.7 1012511
14:00+27вюв4682100 3.9 1009358
17:00+28вюв4579100 4.6 1009423
20:00+28с1171100 8.1 1011413
20 мая, пт
пт2023:00+27сз3382100 1.8 1012208
02:00+27ссз2178100 4.3 1010277
05:00+27вюв237493 0.1 1010520
08:00+27в3475100 0.1 1011622
11:00+28вюв447652 0.1 1010669
14:00+28в4575100 0.3 1007545
17:00+28юв4479100 6.6 1007246
20:00+28в3377100 13.4 1009208
21 мая, сб
сб2123:00+27зсз2280100 6.0 100988
02:00+26сз7689100 10.1 1008377
05:00+26сз3284100 2.6 1008255
08:00+26сз338172 3.9 1009315
11:00+25сз5491100 4.1 1008366
14:00+26сз2282100 4.8 1007407
17:00+26сз2281100 0.3 1006409
20:00+27юв0178100 0.4 1007411